Location: Oberkirch
(48.5323°N, 8.0787°E)
Time: 17:43:10
(UTC+00:00)

Cosmos 1980 - Pass Details

Date: 08 November 2025
Orbit: 836 x 847 km, 71.0° (Epoch: 10 December)

Event Time Altitude Azimuth Distance (km) Brightness Sun altitude
Rises 04:59:06 0° 206° (SSW) 3,378 6.7 -14.4°
Reaches altitude 10° 05:01:32 10° 207° (SSW) 2,449 5.9 -14.0°
Maximum altitude 05:07:10 88° 294° (WNW) 849 3.7 -13.1°
Drops below altitude 10° 05:12:52 10° 28° (NNE) 2,473 6.3 -12.2°
Sets 05:15:19 0° 29° (NNE) 3,414 7.1 -11.8°
